www.pogodaiklimat.ru

Погода и климат >> Архив погоды >> Ямайка >> Kingston


АРХИВ ПОГОДЫ в Kingston

Время (UTC), дата Ветер
(напр.,м/с)
 
Видим.   Явления Облачность Т
(С)
Тd
(С)
f
(%)
Тe
(С)
Тes
(С)
Комфортность P
(гПа)
Po
(гПа)
Тmin
(С)
Tmax
(С)
R
(мм)
R24
(мм)
S
(см)
12 12.10 ЮВ 4 22 км мгла {ливн. осадки} 8/6 600 м
[Cb cap Ci sp]
+26.8 +23.8 84 +37 +37 очень
душно
1011.3 1011.1 +24.6 +31.4 0.0
15 12.10 В 5 28 км в посл. час ливневой дождь 6/5 600 м
[Cu Sc Ci sp]
+28.5 +24.3 78 +40 +43 очень
душно
1012.4 1012.2
18 12.10 ЮВ 9 25 км осадки на расстоянии {ливн. осадки} 6/5 600 м
[Cb cap Ac lent Ci sp]
+30.6 +25.2 73 +44 +45 опасность
перегрева
1010.7 1010.5 +24.6 +31.0 1
21 12.10 ЮВ 5 20 км в посл. час гроза 9/5 600 м
[Cb cap Ac cuf Ci ing]
+28.8 +24.0 75 +40 +41 очень
душно
1009.7 1009.5
00 13.10 В 3 15 км осадки на расстоянии {ливн. осадки} 10/6 480 м
[Cu Sc Ac As Ci ing]
+26.7 +23.7 84 +37 +37 очень
душно
1010.8 1010.6 +24.6 +31.0 0.0
03 13.10 СВ 2 20 км мгла 8/5 540 м
[Cu Sc Ac As Ci sp]
+26.5 +22.3 78 +35 +35 очень
душно
1011.9 1011.7
06 13.10 нст 1 22 км мгла 3/3 600 м
[Cu Sc Ci sp]
+26.4 +23.5 84 +36 +36 очень
душно
1010.7 1010.5 +24.6 +31.0
09 13.10 СВ 2 24 км мгла 3/3 600 м
[Cu Sc Ci sp]
+25.9 +22.0 79 +33 +33 очень
душно
1009.8 1009.6
12 13.10 С 2 24 км осадки на расстоянии 8/3 660 м
[Cu Sc Ac As Ci ing]
+25.2 +24.2 94 +35 +35 очень
душно
1011.3 1011.1 +24.8 +31.0
15 13.10 ЮВ 7 35 км осадки на расстоянии 9/3 600 м
[Cu Sc Ac As Ci sp]
+29.9 +24.0 71 +41 +43 опасность
перегрева
1012.2 1012.0
18 13.10 ЮВ 7 9000 м осадки на расстоянии 9/6 360 м
[Cb cap Ac As Ci ing]
+29.5 +24.3 74 +41 +43 опасность
перегрева
1010.9 1010.7 +24.8 +31.4
21 13.10 ЮВ 8 12 км слабый дождь {ливн. осадки} 9/6 450 м
[Cb cap Ac cuf Ci ing]
+27.5 +23.9 81 +38 +38 очень
душно
1010.0 1009.8
00 14.10 ЮВ 7 25 км мгла {ливн. осадки, дождь} 4/3 600 м
[Cb cap Ac cuf Ci ing]
+27.6 +24.8 85 +39 +39 очень
душно
1010.8 1010.6 +24.8 +31.4 0.0
03 14.10 В 5 20 км мгла 3/1 660 м
[Cu Sc Ci sp]
+27.4 +23.6 80 +37 +37 очень
душно
1012.3 1012.1
06 14.10 В 2 20 км мгла 3/3 660 м
[Cu Sc Ci sp]
+26.8 +23.8 84 +37 +37 очень
душно
1011.1 1010.9 +24.8 +31.4
09 14.10 С 4 20 км мгла 3/1 660 м
[Cu Sc Ci fib]
+25.9 +23.1 85 +35 +35 очень
душно
1010.3 1010.1
12 14.10 СЗ 1 15 км мгла 4/3 540 м
[Cu Sc Ac As Ci ing]
+26.0 +24.2 90 +36 +37 очень
душно
1011.8 1011.6 +24.9 +31.4
15 14.10 В 4 12 км слабый ливневой дождь 9/8 540 м
[Cb cap Ci sp]
+28.8 +24.7 79 +41 +43 опасность
перегрева
1013.2 1013.0
18 14.10 ЮВ 8 10 км слабый ливневой дождь 9/9 500 м
[Cb cap Ci sp]
+29.6 +24.9 76 +42 +43 опасность
перегрева
1011.5 1011.3 +24.9 +30.4 0.0
21 14.10 В 8 8000 м слабый ливневой дождь {гроза} 9/9 540 м
[Cb cap Ac As Ci ing]
+25.7 +24.1 91 +36 +36 очень
душно
1010.7 1010.5
00 15.10 ЮВ 7 8000 м слабый дождь {гроза, ливн. осадки} 9/5 360 м
[Cu Sc Ac As Ci sp]
+25.2 +24.4 95 +35 +35 очень
душно
1012.8 1012.6 +24.3 +30.4 7
03 15.10 ЮВ 5 12 км слабый дождь 9/6 540 м
[Cu Sc Ac As]
+25.9 +22.8 83 +34 +34 очень
душно
1014.6 1014.4
06 15.10 ЮВ 7 20 км в посл. час дождь 6/4 600 м
[Cu Sc Ci sp]
+26.5 +24.3 88 +37 +37 очень
душно
1012.4 1012.2 +23.9 +30.4 4
09 15.10 С 2 20 км 3/1 660 м
[Cu Sc Ci sp]
+25.6 +22.3 82 +33 +33 очень
душно
1011.3 1011.1
12 15.10 С 3 28 км мгла 6/1 660 м
[Cu Sc Ci sp]
+25.9 +23.1 85 +35 +35 очень
душно
1012.6 1012.4 +23.9 +30.4
15 15.10 ЮВ 9 25 км слабый ливневой дождь 6/5 540 м
[Cu Sc Ci sp]
+28.1 +24.0 78 +39 +39 очень
душно
1013.7 1013.5
18 15.10 ЮВ 9 22 км осадки на расстоянии {ливн. осадки} 4/3 660 м
[Cb cap Ci sp]
+31.2 +25.6 72 +46 +47 опасность
перегрева
1012.4 1012.2 +23.9 +31.7 0.0
21 15.10 ЮВ 8 20 км осадки на расстоянии 5/3 600 м
[Cb cap Ci sp]
+29.0 +24.5 77 +41 +41 опасность
перегрева
1011.1 1010.9
00 16.10 В 4 25 км в посл. час ливневой дождь 3/3 660 м
[Cu Sc Ci sp]
+28.1 +23.5 76 +38 +38 очень
душно
1012.7 1012.5 +24.4 +31.7 0.0
03 16.10 В 3 25 км мгла 1/1 660 м
[Cu Sc Ci fib]
+27.1 +22.9 78 +36 +36 очень
душно
1014.0 1013.8
06 16.10 С 3 20 км мгла 4/1 660 м
[Cu Sc Ci fib]
+26.4 +23.9 86 +36 +36 очень
душно
1013.6 1013.4 +24.4 +31.7
09 16.10 С 4 20 км мгла 5/1 660 м
[Cu Sc Ci fib]
+26.9 +22.4 76 +35 +35 очень
душно
1012.5 1012.3
12 16.10 В 5 30 км осадки на расстоянии 5/5 600 м
[Cb cap Ac cuf Ci ing]
+27.9 +21.6 69 +36 +36 очень
душно
1013.3 1013.1 +25.1 +31.7
15 16.10 В 4 18 км мгла 4/3 660 м
[Cu Sc Ac As Ci sp]
+30.8 +23.5 65 +42 +47 опасность
перегрева
1014.1 1013.9
18 16.10 ЮВ 11 20 км мгла 3/3 660 м
[Cu Sc Ac As Ci fib]
+32.4 +23.1 58 +43 +43 опасность
перегрева
1010.9 1010.7 +23.5 +32.8
21 16.10 ЮВ 10 24 км мгла 3/3 660 м
[Cb cap Ac lent Ci ing]
+31.6 +23.4 62 +42 +43 опасность
перегрева
1010.1 1009.9
00 17.10 ЮВ 5 25 км зарница 5/4 600 м
[Cb cap Ac As Ci ing]
+30.0 +22.8 65 +40 +40 очень
душно
1012.0 1011.8 +23.5 +32.8
03 17.10 С 3 25 км мгла 8/3 600 м
[Cb cap Ac As Ci ing]
+27.7 +21.8 70 +36 +36 очень
душно
1013.4 1013.2
06 17.10 СЗ 4 25 км в посл. час дождь 3/3 660 м
[Cb cap Ci fib]
+27.6 +23.2 77 +37 +37 очень
душно
1012.3 1012.1 +25.1 +32.8 0.0
09 17.10 С 3 25 км зарница 6/5 660 м
[Cb cap Ci sp]
+26.6 +21.7 75 +34 +34 очень
душно
1012.0 1011.8
12 17.10 С 3 25 км мгла 9/3 660 м
[Cb cap Ci sp]
+27.4 +23.0 77 +37 +37 очень
душно
1013.6 1013.4 +26.1 +32.8
15 17.10 ЮВ 3 25 км осадки на расстоянии 9/4 600 м
[Cb cap Ac cuf Ci ing]
+31.3 +24.3 66 +43 +47 опасность
перегрева
1014.7 1014.5
18 17.10 ЮВ 8 20 км осадки на расстоянии 9/4 600 м
[Cb cap Ac cuf Ci ing]
+31.4 +23.8 64 +43 +44 опасность
перегрева
1011.7 1011.5 +26.1 +32.5
21 17.10 С 4 18 км осадки на расстоянии 9/4 600 м
[Cb cap Ac As Ci ing]
+29.4 +25.4 79 +43 +44 опасность
перегрева
1011.1 1010.9
00 18.10 СВ 3 22 км мгла 9/3 600 м
[Cb cap Ac As Ci ing]
+28.7 +25.5 83 +42 +42 опасность
перегрева
1012.2 1012.0 +26.1 +32.5
03 18.10 СЗ 3 25 км мгла 9/1 660 м
[Cu Sc Ac As Ci ing]
+27.6 +23.6 79 +38 +38 очень
душно
1013.5 1013.3
06 18.10 СЗ 2 25 км зарница 5/1 660 м
[Cb cap Ci sp]
+27.3 +23.5 80 +37 +37 очень
душно
1012.8 1012.6 +26.1 +32.5
09 18.10 СЗ 2 25 км зарница 4/1 660 м
[Cb cap Ci ing]
+25.9 +22.6 82 +34 +34 очень
душно
1011.7 1011.5
12 18.10 Ю 2 22 км мгла 5/3 600 м
[Cb cap Ac cuf Ci ing]
+27.1 +23.9 83 +37 +38 очень
душно
1013.3 1013.1 +25.1 +32.5
15 18.10 ЮЗ 2 30 км мгла 5/1 660 м
[Cb cap Ac As Ci ing]
+30.9 +23.3 64 +41 +50 опасность
перегрева
1014.9 1014.7
18 18.10 ЮВ 9 20 км в посл. час ливневой дождь 8/6 600 м
[Cb cap Ac cuf Ci ing]
+31.2 +26.3 75 +47 +48 опасность
перегрева
1012.4 1012.2 +25.1 +32.4 0.0
21 18.10 ЮВ 9 12 км в посл. час гроза 9/6 540 м
[Cb cap Ac cuf Ci ing]
+31.1 +25.6 73 +46 +46 опасность
перегрева
1011.5 1011.3
00 19.10 СЗ 3 20 км мгла {гроза} 6/3 660 м
[Cb cap Ci ing]
+29.2 +25.9 82 +44 +44 опасность
перегрева
1012.8 1012.6 +25.1 +32.4
03 19.10 СЗ 3 20 км мгла 4/1 660 м
[Cu Sc Ci sp]
+26.8 +24.0 85 +37 +37 очень
душно
1014.2 1014.0
06 19.10 З 2 20 км мгла 3/1 720 м
[Cu Sc Ac As Ci ing]
+27.0 +24.8 88 +39 +39 очень
душно
1013.4 1013.2 +25.1 +32.4

 

Местоположение метеостанции Kingston (Ямайка): широта 17.93 долгота -76.78 высота над уровнем моря 14 м.

В архиве по умолчанию представлена погода в Kingston за последнюю неделю. Архивные данные за месяц целиком и за предыдущие месяцы, начиная с января 2011 года, Вы можете получить, выбрав интересующий диапазон дат из раскрывающегося списка и нажав кнопку "Ввод!".


*Определитесь, кто Вы:
робот инопланетянин человек

Внимание! Время в таблицах - всемирное. Для получения местного времени необходимо прибавить поправку, которая в Kingston равна -5 ч.

Смотрите также архив погоды в соседних городах и на ближайших метеорологических станциях:

Погода в Montego Bay (Ямайка) (135 км)
Погода в Cabo Cruz (Куба) (236 км)
Погода в Santiago de Cuba (Куба) (247 км)
Погода в Santiago de Cuba (Куба) (267 км)
Погода в Santa Cruz Del Sur (Куба) (336 км)
Погода в Puerto Padre (Куба) (364 км)
Погода в Cabo Lurecia (Куба) (370 км)
Погода в Punta Lucrecia (Куба) (370 км)
Погода в Punta de Maisi (Куба) (378 км)
Погода в Camaguey (Куба) (402 км)

Пояснения к столбцам:

Ветер - указаны скорость ветра в м/с - средняя за 10 мин, порывы в срок и между сроками (в фигурных скобках) и направление, откуда дует ветер: С - северный, СВ - северо-восточный, В - восточный, ЮВ - юго-восточный, Ю - южный, ЮЗ - юго-западный, З - западный, СЗ - северо-западный.
Видимость - горизонтальная дальность видимости в метрах или километрах. При видимости от 1 до 10 км при отсутствии осадков обычно наблюдается дымка, при ухудшении видимости до 1 км и менее - туман. В сухую погоду видимость может ухудшаться дымом, пылью или мглою.
Явления - указаны атмосферные явления, наблюдавшиеся в срок или в последний час перед сроком; фигурными скобками обозначены явления, наблюдавшиеся между сроками (за 1-3 часа до срока); квадратными скобками обозначены град или гололедные отложения с указанием их диаметра в мм.
Облачность - указаны через наклонную черту общая и нижняя облачность в баллах и высота нижней границы облаков в метрах; квадратными скобками обозначены формы облаков: Ci - перистые, Cs - перисто-слоистые, Cc - перисто-кучевые, Ac - высококучевые, As - высокослоистые, Sc - слоисто-кучевые, Ns - слоисто-дождевые, Cu - кучевые, Cb - кучево-дождевые. Подробнее классификацию облаков см. в Атласе облаков (PDF).
T - Температура воздуха - температура, измеренная на высоте 2 м над землей.
Td - Температура точки росы - температура, при понижении до которой содержащийся в воздухе водяной пар достигнет насыщения.
f - Относительная влажность воздуха - влажноcть воздуха, измеренная на высоте 2 м над землей.
Te - Эффективная температура - температура, которую ощущает одетый по сезону человек в тени. Характеристика душности погоды. При расчете учитывается влияние влажности воздуха и скорости ветра на теплоощущения человека.
Tes - Эффективная температура на солнце - температура, которую ощущает человек, с поправкой на солнечный нагрев. Характеристика знойности погоды. Зависит от высоты солнца над горизонтом, облачности и скорости ветра. Ночью, в пасмурную погоду, а также при ветре 12 м/с и более поправка равна нулю.
P - Атмосферное давление - приведенное к уровню моря атмосферное давление.
Po - Атмосферное давление - измеренное на уровне метеостанции атмосферное давление.
Tmin - Минимальная температура - минимум температуры воздуха на высоте 2 м над землей.
Tmax - Максимальная температура - максимум температуры воздуха на высоте 2 м над землей.
R - Количество осадков - Количество выпавших осадков за период времени, мм. При наведении курсора мыши на число - период времени, за который выпало указанное количество осадков.
R24 - Количество осадков - Количество выпавших осадков за 24 часа, мм.
S - Снежный покров - Высота снежного покрова, см. При наведении курсора мыши на число - состояние снежного покрова и степень покрытия местности в баллах.